EW2849 Weather Reports


Display with metric or nautical units.
time (UTC)temp
F
wind
direction
speed
MPH
gust
MPH
rain 1hr
in
rain 24hr
in
rain mn
in
humidity
%
barometer
mb
20260507134011 61 26 2.0 5.0 0.00 0.00 0.00 63 1015.6
20260507132850 61 65 0.0 1.0 0.00 0.00 0.00 62 1015.6
20260507131609 61 54 2.0 3.0 0.00 0.00 0.00 61 1015.6
20260507130427 62 45 3.0 5.0 0.00 0.00 0.00 61 1015.6
20260507125206 62 343 2.0 7.0 0.00 0.00 0.00 62 1015.6
20260507124007 62 22 2.0 6.0 0.00 0.00 0.00 63 1015.6
20260507122805 62 44 3.0 5.0 0.00 0.00 0.00 63 1015.6
20260507121623 61 59 2.0 3.0 0.00 0.00 0.00 63 1015.6
20260507120402 62 313 1.0 4.0 0.00 0.00 0.00 64 1015.6
20260507115201 62 23 2.0 5.0 0.00 0.00 0.00 64 1015.6
20260507114000 61 45 4.0 6.0 0.00 0.00 0.00 63 1015.6
20260507112759 62 68 4.0 4.0 0.00 0.00 0.00 63 1015.6
20260507111557 62 63 2.0 5.0 0.00 0.00 0.00 63 1015.6
20260507110357 62 29 3.0 5.0 0.00 0.00 0.00 63 1015.6
20260507105156 62 0 1.0 4.0 0.00 0.00 0.00 62 1015.6
20260507103954 62 61 2.0 4.0 0.00 0.00 0.00 61 1015.6
20260507102813 63 55 5.0 6.0 0.00 0.00 0.00 62 1015.6
20260507101552 63 27 4.0 9.0 0.00 0.00 0.00 65 1015.6
20260507100351 61 119 2.0 3.0 0.00 0.00 0.00 65 1015.6
20260507095149 61 52 4.0 9.0 0.00 0.00 0.00 65 1015.6
20260507093948 61 18 4.0 7.0 0.00 0.00 0.00 64 1015.6
20260507092747 63 45 3.0 5.0 0.00 0.00 0.00 65 1015.6
20260507091546 63 30 5.0 9.0 0.00 0.00 0.00 66 1015.6
20260507090345 62 355 4.0 6.0 0.00 0.00 0.00 69 1015.6
20260507085143 61 21 4.0 7.0 0.00 0.00 0.00 70 1015.6
20260507083942 61 12 1.0 4.0 0.00 0.00 0.00 72 1015.6
20260507082741 59 12 2.0 5.0 0.00 0.00 0.00 73 1015.6
20260507081540 58 45 5.0 7.0 0.00 0.00 0.00 74 1015.6
20260507080338 58 68 4.0 5.0 0.00 0.00 0.00 75 1015.6
20260507075137 56 50 4.0 5.0 0.00 0.00 0.00 77 1015.6
20260507073936 56 32 4.0 5.0 0.00 0.00 0.00 79 1015.6
20260507072735 55 45 5.0 6.0 0.00 0.00 0.00 80 1015.6
20260507071554 54 59 3.0 5.0 0.00 0.00 0.00 83 1015.6
20260507070353 53 68 4.0 5.0 0.00 0.00 0.00 85 1015.6
20260507065132 52 40 2.0 4.0 0.00 0.00 0.00 87 1015.6
20260507063930 51 30 2.0 3.0 0.00 0.00 0.00 88 1015.6
20260507062730 51 45 6.0 8.0 0.00 0.00 0.00 90 1015.6
20260507061548 50 23 4.0 5.0 0.00 0.00 0.00 90 1015.6
20260507060328 50 45 3.0 5.0 0.00 0.00 0.00 91 1015.6
20260507055126 50 45 5.0 6.0 0.00 0.00 0.00 91 1015.6
20260507053925 50 2 2.0 5.0 0.00 0.00 0.00 92 1012.2
20260507052724 50 37 2.0 4.0 0.00 0.00 0.00 92 1012.2
20260507051523 50 23 1.0 3.0 0.00 0.00 0.00 91 1012.2
20260507050322 50 23 1.0 3.0 0.00 0.00 0.00 91 1012.2
20260507045121 50 27 1.0 3.0 0.00 0.00 0.00 91 1012.2
20260507043920 50 33 1.0 2.0 0.00 0.00 0.00 91 1012.2
20260507042718 50 39 2.0 5.0 0.00 0.00 0.00 90 1012.2
20260507041517 50 23 2.0 3.0 0.00 0.00 0.00 90 1012.2
20260507040336 50 33 2.0 3.0 0.00 0.00 0.00 90 1012.2
20260507035235 50 24 1.0 3.0 0.00 0.00 0.00 90 1012.2
20260507034014 50 4 2.0 3.0 0.00 0.00 0.00 89 1012.2
20260507032813 51 12 2.0 5.0 0.00 0.00 0.00 89 1012.2
20260507031612 51 39 3.0 5.0 0.00 0.00 0.00 88 1012.2
20260507030411 51 27 1.0 3.0 0.00 0.00 0.00 88 1012.2
20260507025210 51 5 3.0 7.0 0.00 0.00 0.00 87 1012.2
20260507024009 51 0 5.0 6.0 0.00 0.00 0.00 87 1012.2
20260507022808 51 3 2.0 4.0 0.00 0.00 0.00 86 1012.2
20260507021606 52 23 2.0 4.0 0.00 0.00 0.00 86 1012.2
20260507020426 52 0 2.0 2.0 0.00 0.00 0.00 85 1012.2
20260507015204 52 17 3.0 5.0 0.00 0.00 0.00 85 1012.2
20260507014003 52 11 1.0 3.0 0.00 0.00 0.00 85 1012.2
20260507012802 52 0 2.0 3.0 0.00 0.00 0.00 85 1012.2
20260507011601 52 23 1.0 3.0 0.00 0.00 0.00 84 1012.2
20260507010400 52 23 2.0 3.0 0.00 0.00 0.00 84 1012.2
20260507005158 52 351 3.0 5.0 0.00 0.00 0.00 84 1012.2
20260507003957 52 0 3.0 4.0 0.00 0.00 0.00 84 1012.2
20260507002756 52 23 0.0 1.0 0.00 0.00 0.00 84 1012.2
20260507001555 52 8 1.0 3.0 0.00 0.00 0.00 84 1012.2
20260507000354 52 2 1.0 3.0 0.00 0.00 0.00 83 1012.2
20260506235153 52 23 0.0 1.0 0.00 0.00 0.00 83 1012.2
20260506233952 52 0 1.0 3.0 0.00 0.00 0.00 83 1012.2
20260506232751 52 42 0.0 1.0 0.00 0.00 0.00 83 1012.2
20260506231549 52 25 0.0 1.0 0.00 0.00 0.00 82 1012.2
20260506230347 52 23 0.0 1.0 0.00 0.00 0.00 82 1012.2
20260506225206 52 7 1.0 1.0 0.00 0.00 0.00 81 1012.2
20260506223945 52 41 1.0 1.0 0.00 0.00 0.00 81 1012.2
20260506222744 52 45 1.0 2.0 0.00 0.00 0.00 80 1012.2
20260506221543 52 11 0.0 2.0 0.00 0.00 0.00 80 1012.2
20260506220342 52 23 1.0 2.0 0.00 0.00 0.00 80 1012.2
20260506215150 53 23 1.0 1.0 0.00 0.00 0.00 79 1012.2
20260506213949 53 45 0.0 1.0 0.00 0.00 0.00 79 1012.2
20260506212748 53 45 1.0 2.0 0.00 0.00 0.00 79 1012.2
20260506211548 53 34 1.0 2.0 0.00 0.00 0.00 79 1012.2
20260506210346 53 45 2.0 3.0 0.00 0.00 0.00 78 1012.2
20260506205146 53 45 2.0 3.0 0.00 0.00 0.00 78 1012.2
20260506203944 53 39 3.0 5.0 0.00 0.00 0.00 78 1012.2
20260506202743 53 25 1.0 3.0 0.00 0.00 0.00 78 1012.2
20260506201602 54 63 4.0 5.0 0.00 0.00 0.00 77 1012.2
20260506200401 54 33 5.0 6.0 0.00 0.00 0.00 77 1012.2
20260506195200 54 55 4.0 6.0 0.00 0.00 0.00 77 1012.2
20260506193939 54 45 5.0 8.0 0.00 0.00 0.00 76 1012.2
20260506192737 54 45 3.0 5.0 0.00 0.00 0.00 76 1008.8
20260506191537 54 45 4.0 7.0 0.00 0.00 0.00 75 1008.8
20260506190335 54 45 6.0 9.0 0.00 0.00 0.00 75 1008.8
20260506185135 54 35 3.0 4.0 0.00 0.00 0.00 75 1008.8
20260506183933 54 45 3.0 6.0 0.00 0.00 0.00 75 1008.8
20260506182733 54 29 5.0 7.0 0.00 0.00 0.00 74 1008.8
20260506181552 55 30 7.0 10.0 0.00 0.00 0.00 73 1008.8
20260506180331 55 45 7.0 11.0 0.00 0.00 0.00 72 1008.8
20260506175129 56 45 9.0 15.0 0.00 0.00 0.00 71 1008.8
20260506173948 56 38 5.0 8.0 0.00 0.00 0.00 70 1008.8
20260506172727 57 45 9.0 13.0 0.00 0.00 0.00 69 1008.8
20260506171525 57 41 9.0 13.0 0.00 0.00 0.00 68 1008.8
20260506170325 57 45 13.0 19.0 0.00 0.00 0.00 67 1008.8
20260506165123 57 45 8.0 11.0 0.00 0.00 0.00 65 1008.8
20260506163922 57 51 5.0 11.0 0.00 0.00 0.00 65 1008.8
20260506162721 58 32 6.0 11.0 0.00 0.00 0.00 64 1008.8
20260506161519 58 54 12.0 19.0 0.00 0.00 0.00 64 1008.8
20260506160318 59 45 9.0 13.0 0.00 0.00 0.00 64 1008.8
20260506155117 59 37 9.0 15.0 0.00 0.00 0.00 66 1008.8
20260506153916 60 46 7.0 10.0 0.00 0.00 0.00 66 1008.8
20260506152815 60 10 4.0 9.0 0.00 0.00 0.00 66 1008.8
20260506151613 60 27 6.0 11.0 0.00 0.00 0.00 66 1008.8
20260506150412 60 45 5.0 7.0 0.00 0.00 0.00 65 1008.8
20260506145211 61 45 9.0 11.0 0.00 0.00 0.00 64 1008.8
20260506144010 62 18 6.0 9.0 0.00 0.00 0.00 64 1008.8
20260506142810 63 19 4.0 8.0 0.00 0.00 0.00 66 1006.3
20260506141606 63 45 4.0 8.0 0.00 0.00 0.00 67 1008.8
20260506140406 62 5 6.0 11.0 0.00 0.00 0.00 68 1008.8
20260506135204 61 26 6.0 10.0 0.00 0.00 0.00 68 1008.8